TimeCDT,TemperatureF,Dew PointF,Humidity,Sea Level PressureIn,VisibilityMPH,Wind Direction,Wind SpeedMPH,Gust SpeedMPH,PrecipitationIn,Events,Conditions,WindDirDegrees,DateUTC
12:52 AM,35.1,30.0,82,30.46,10.0,Calm,Calm,-,N/A,,Clear,0,2013-10-25 05:52:00
1:52 AM,34.0,30.0,85,30.47,10.0,Calm,Calm,-,N/A,,Clear,0,2013-10-25 06:52:00
2:52 AM,30.9,28.0,89,30.48,10.0,Calm,Calm,-,N/A,,Clear,0,2013-10-25 07:52:00
3:52 AM,30.9,28.0,89,30.49,10.0,Calm,Calm,-,N/A,,Clear,0,2013-10-25 08:52:00
4:52 AM,30.9,28.0,89,30.49,10.0,Calm,Calm,-,N/A,,Clear,0,2013-10-25 09:52:00
5:52 AM,30.9,28.0,89,30.50,10.0,Calm,Calm,-,N/A,,Clear,0,2013-10-25 10:52:00
6:52 AM,32.0,28.0,85,30.50,10.0,Calm,Calm,-,N/A,,Clear,0,2013-10-25 11:52:00
7:52 AM,34.0,28.0,79,30.51,10.0,Calm,Calm,-,N/A,,Clear,0,2013-10-25 12:52:00
8:52 AM,41.0,32.0,70,30.51,10.0,Calm,Calm,-,N/A,,Scattered Clouds,0,2013-10-25 13:52:00
9:52 AM,46.0,28.9,51,30.51,10.0,Variable,5.8,-,N/A,,Clear,0,2013-10-25 14:52:00
10:52 AM,50.0,26.1,39,30.50,10.0,SSE,9.2,-,N/A,,Clear,150,2013-10-25 15:52:00
11:52 AM,52.0,25.0,35,30.48,10.0,Variable,6.9,16.1,N/A,,Clear,0,2013-10-25 16:52:00
12:52 PM,54.0,25.0,33,30.45,10.0,Variable,6.9,-,N/A,,Clear,0,2013-10-25 17:52:00
1:52 PM,55.9,26.1,32,30.40,10.0,Variable,5.8,-,N/A,,Clear,0,2013-10-25 18:52:00
2:52 PM,57.0,27.0,32,30.37,10.0,South,8.1,-,N/A,,Clear,190,2013-10-25 19:52:00
3:52 PM,57.9,27.0,31,30.33,10.0,South,6.9,-,N/A,,Clear,170,2013-10-25 20:52:00
4:52 PM,57.0,28.9,34,30.31,10.0,South,4.6,-,N/A,,Partly Cloudy,190,2013-10-25 21:52:00
5:52 PM,55.9,30.0,37,30.29,10.0,South,5.8,-,N/A,,Clear,190,2013-10-25 22:52:00
6:52 PM,51.1,33.1,50,30.27,10.0,Calm,Calm,-,N/A,,Clear,0,2013-10-25 23:52:00
7:52 PM,48.9,35.1,59,30.26,10.0,SE,3.5,-,N/A,,Clear,140,2013-10-26 00:52:00
8:52 PM,46.0,35.1,66,30.26,10.0,Calm,Calm,-,N/A,,Clear,0,2013-10-26 01:52:00
9:52 PM,45.0,35.1,68,30.24,10.0,South,4.6,-,N/A,,Clear,190,2013-10-26 02:52:00
10:52 PM,44.1,36.0,73,30.23,10.0,South,5.8,-,N/A,,Clear,190,2013-10-26 03:52:00
11:52 PM,44.1,35.1,71,30.22,10.0,SSW,3.5,-,N/A,,Clear,200,2013-10-26 04:52:00